Change the Weather History Date:

Sunday, July 14, 2013

  Actual Average (KDUJ) Record (KDUJ)
Temperature  
Mean Temperature 73 °F 69 °F  
Max Temperature 86 °F 79 °F 90 °F (1988)
Min Temperature 62 °F 58 °F 47 °F (2007)
Degree Days  
Heating Degree Days 0 1  
Month to date heating degree days 14  
Since 1 June heating degree days 99  
Since 1 July heating degree days 14  
Cooling Degree Days 8 4  
Month to date cooling degree days 56  
Year to date cooling degree days 150  
Since 1 June cooling degree days 127  
Growing Degree Days 23 (Base 50)    
Moisture  
Dew Point 64 °F    
Average Humidity 85    
Maximum Humidity 100    
Minimum Humidity 51    
Precipitation  
Precipitation 0.00 in 0.15 in 18.60 in (1998)
Month to date precipitation 1.98  
Sea Level Pressure  
Sea Level Pressure 30.32 in    
Wind  
Wind Speed 4 mph (North)    
Max Wind Speed 9 mph    
Max Gust Speed 17 mph    
Visibility 6 miles    
Events      
T = Trace of Precipitation, MM = Missing Value Source: NWS Daily Summary

Daily Weather History Graph

Daily Weather History Graph

Search for Another Location

Airport or City:

Trip Planner

Search our weather history database for the weather conditions in past years. The results will help you decide how hot, cold, wet, or windy it might be!

Date:

Astronomy

Jul. 14, 2013 Rise Set
Actual Time 5:53 AM EDT 8:45 PM EDT
Civil Twilight 5:21 AM EDT 9:17 PM EDT
Nautical Twilight 4:39 AM EDT 9:58 PM EDT
Astronomical Twilight 3:52 AM EDT 10:45 PM EDT
Moon 12:12 PM EDT (7/14) 11:52 PM EDT (7/14)
Length of Visible Light 15h 56m
Length of Day
14h 51m
Waxing Crescent, 35% of the Moon is Illuminated
Jul 14
Waxing Crescent
Jul 15
First Quarter
Jul 22
Full
Jul 29
Last Quarter
Aug 6
New

Hourly Weather History & Observations

Time (EDT) Temp. Heat Index Dew Point Humidity Pressure Visibility Wind Dir Wind Speed Gust Speed Precip Events Conditions
12:54 AM 64.9 °F - 64.0 °F 97% 30.30 in 10.0 mi North 4.6 mph - N/A   Clear
1:54 AM 64.0 °F - 63.0 °F 96% 30.30 in 8.0 mi East 4.6 mph - N/A   Clear
2:08 AM 62.6 °F - 62.6 °F 100% 30.31 in 2.5 mi North 5.8 mph - N/A   Partly Cloudy
2:15 AM 62.6 °F - 62.6 °F 100% 30.31 in 1.2 mi North 3.5 mph - N/A   Partly Cloudy
2:20 AM 64.4 °F - 62.6 °F 94% 30.31 in 3.0 mi North 4.6 mph - N/A   Partly Cloudy
2:37 AM 62.6 °F - 62.6 °F 100% 30.31 in 1.8 mi North 5.8 mph - N/A   Partly Cloudy
2:43 AM 64.4 °F - 62.6 °F 94% 30.31 in 3.0 mi North 4.6 mph - N/A   Partly Cloudy
2:54 AM 64.0 °F - 63.0 °F 96% 30.30 in 8.0 mi North 4.6 mph - N/A   Partly Cloudy
3:54 AM 63.0 °F - 62.1 °F 97% 30.30 in 6.0 mi Calm Calm - N/A   Clear
4:54 AM 63.0 °F - 62.1 °F 97% 30.30 in 6.0 mi North 4.6 mph - N/A   Partly Cloudy
5:04 AM 62.6 °F - 62.6 °F 100% 30.32 in 2.5 mi NNE 4.6 mph - N/A   Scattered Clouds
5:18 AM 64.4 °F - 62.6 °F 94% 30.32 in 4.0 mi North 3.5 mph - N/A   Partly Cloudy
5:22 AM 62.6 °F - 62.6 °F 100% 30.32 in 1.8 mi North 3.5 mph - N/A   Scattered Clouds
5:39 AM 62.6 °F - 62.6 °F 100% 30.33 in 1.2 mi North 3.5 mph - N/A   Mostly Cloudy
5:45 AM 62.6 °F - 62.6 °F 100% 30.33 in 2.0 mi North 3.5 mph - N/A   Overcast
5:54 AM 64.0 °F - 63.0 °F 96% 30.32 in 4.0 mi NNE 3.5 mph - N/A   Mostly Cloudy
6:08 AM 62.6 °F - 62.6 °F 100% 30.33 in 1.8 mi North 4.6 mph - N/A   Mostly Cloudy
6:13 AM 62.6 °F - 60.8 °F 94% 30.33 in 2.0 mi North 4.6 mph - N/A   Mostly Cloudy
6:24 AM 62.6 °F - 62.6 °F 100% 30.34 in 4.0 mi North 3.5 mph - N/A   Scattered Clouds
6:39 AM 62.6 °F - 62.6 °F 100% 30.34 in 1.2 mi North 3.5 mph - N/A   Scattered Clouds
6:50 AM 64.4 °F - 62.6 °F 94% 30.35 in 2.5 mi Calm Calm - N/A   Mostly Cloudy
6:54 AM 64.0 °F - 63.0 °F 96% 30.33 in 5.0 mi Calm Calm - N/A   Mostly Cloudy
7:06 AM 64.4 °F - 64.4 °F 100% 30.35 in 6.0 mi Calm Calm - N/A   Overcast
7:47 AM 64.4 °F - 64.4 °F 100% 30.36 in 5.0 mi North 5.8 mph - N/A   Scattered Clouds
7:54 AM 66.9 °F - 66.0 °F 97% 30.35 in 6.0 mi North 4.6 mph - N/A   Partly Cloudy
8:54 AM 73.0 °F - 68.0 °F 84% 30.34 in 10.0 mi Calm Calm - N/A   Clear
9:54 AM 75.9 °F - 66.9 °F 74% 30.34 in 10.0 mi SSW 3.5 mph - N/A   Clear
10:54 AM 80.1 °F 82.3 °F 66.9 °F 64% 30.34 in 10.0 mi SSW 3.5 mph - N/A   Partly Cloudy
11:54 AM 80.1 °F 82.3 °F 66.9 °F 64% 30.34 in 10.0 mi Calm Calm - N/A   Mostly Cloudy
12:54 PM 82.9 °F 85.0 °F 66.0 °F 56% 30.33 in 10.0 mi South 5.8 mph - N/A   Scattered Clouds
1:54 PM 82.9 °F 85.0 °F 66.0 °F 56% 30.32 in 10.0 mi Variable 6.9 mph 17.3 mph N/A   Partly Cloudy
2:54 PM 84.9 °F 87.1 °F 66.0 °F 53% 30.32 in 10.0 mi South 8.1 mph - N/A   Scattered Clouds
3:54 PM 84.9 °F 86.6 °F 64.9 °F 51% 30.31 in 10.0 mi Variable 6.9 mph - N/A   Scattered Clouds
4:54 PM 84.0 °F 85.8 °F 64.9 °F 53% 30.31 in 10.0 mi South 9.2 mph - N/A   Mostly Cloudy
5:54 PM 82.9 °F 84.6 °F 64.9 °F 54% 30.30 in 10.0 mi South 6.9 mph - N/A   Clear
6:54 PM 82.9 °F 84.6 °F 64.9 °F 54% 30.29 in 10.0 mi South 4.6 mph - N/A   Partly Cloudy
7:54 PM 80.1 °F 82.1 °F 66.0 °F 62% 30.29 in 10.0 mi South 4.6 mph - N/A   Clear
8:54 PM 77.0 °F - 66.0 °F 69% 30.30 in 10.0 mi Calm Calm - N/A   Clear
9:54 PM 73.0 °F - 66.9 °F 81% 30.32 in 10.0 mi North 3.5 mph - N/A   Clear
10:54 PM 70.0 °F - 66.0 °F 87% 30.32 in 10.0 mi North 3.5 mph - N/A   Clear
11:54 PM 69.1 °F - 64.9 °F 87% 30.32 in 10.0 mi North 5.8 mph - N/A   Clear